Starlink 5547

operational
NORAD ID: 55352 Int'l Des: 2023-013 Owner: SPXS Country: US Constellation: starlink
LEOCIRCULAR

About Starlink 5547

Description loading...

Live Position

Loading 3D Globe...

Upcoming Passes

Altitude History

Altitude vs Time

uPlot chart will show altitude changes over time

Two-Line Element Set

1 55352U 23013X 25314.17874525 .00000144 00000-0 25756-4 0 9991
2 55352 43.0030 229.5669 0000944 269.5604 90.5130 15.02527249153734
Epoch: Nov 10, 2025 • Age: 34 hours

Current Status

Altitude 561.5 km
Velocity 7.59 km/s
Sub-Earth Point 36.48°N, 83.97°E
Launch Date Jan 26, 2023
Age 2.7 years
Type internet

Technical Details

Classification Payload
Mass 305.00 kg
Dry Mass 290.00 kg
Total Mass 305.00 kg
Length 0.20 m
Diameter 2.80 m
Span 9.00 m
Shape Box + pan
Manufacturer SPXS
Bus Type Starlink
Phase Status In Orbit
Owner/State SPXS/US

Large Constellations

Loading constellations...